This demonstration page uses our WeatherBlox Daily Observations layout. Learn more.

Left ArrowRight Arrow

34.16533, -84.80231

Hourly Observations for May 31, 2017

Temp ( °F °C ) Dew Point ( °F °C ) Humidity (%) Winds ( mph kmh ) Pressure ( in mb ) Visibility ( mi km ) Precip ( " mm )
12:08 am 00:08 Mostly Cloudy 67 19.4 67 19.4 100 100 Calm 30.09 1019 9 14 0.00 0.00
12:27 am 00:27 Cloudy 67 19.4 67 19.4 100 100 Calm 30.09 1019 9 14 0.00 0.00
12:43 am 00:43 Cloudy 67 19.4 67 19.4 100 100 Calm 30.09 1019 8 13 0.00 0.00
12:53 am 00:53 Cloudy 66 18.9 66 18.9 100 100 Calm 30.10 1019 8 13 0.00 0.00
1:04 am 01:04 Cloudy 66 18.9 66 18.9 100 100 Calm 30.09 1019 8 13 0.00 0.00
1:53 am 01:53 Clear 66 18.9 66 18.9 100 100 Calm 30.10 1019 7 11 0.00 0.00
2:53 am 02:53 Mostly Clear 65 18.3 65 18.3 100 100 Calm 30.09 1019 7 11 0.00 0.00
3:53 am 03:53 Clear 64 17.8 64 17.8 100 100 Calm 30.08 1019 8 13 0.00 0.00
4:53 am 04:53 Clear 64 17.8 64 17.8 100 100 Calm 30.08 1019 8 13 0.00 0.00
5:53 am 05:53 Cloudy 65 18.3 65 18.3 100 100 Calm 30.09 1019 7 11 0.00 0.00
6:04 am 06:04 Cloudy 65 18.3 65 18.3 100 100 Calm 30.09 1019 7 11 0.00 0.00
6:53 am 06:53 Cloudy with Light Rain 65 18.3 65 18.3 100 100 Calm 30.10 1019 4 6 0.02 0.51
7:01 am 07:01 Cloudy with Light Rain 65 18.3 65 18.3 100 100 Calm 30.09 1019 5 8 0.00 0.03
7:21 am 07:21 Mostly Cloudy with Mist and Fog 65 18.3 65 18.3 100 100 Calm 30.09 1019 4 6 0.00 0.03
7:31 am 07:31 Mostly Cloudy 65 18.3 65 18.3 100 100 Calm 30.12 1020 7 11 0.00 0.03
7:53 am 07:53 Mostly Cloudy 66 18.9 66 18.9 100 100 Calm 30.11 1020 7 11 0.00 0.03
8:03 am 08:03 Mostly Cloudy 66 18.9 66 18.9 100 100 S 3 6 30.12 1020 8 13 0.00 0.00
8:53 am 08:53 Mostly Sunny 68 20 68 20 100 100 Calm 30.12 1020 10 16 0.00 0.00
9:50 am 09:50 Partly Cloudy 70 21 70 21 100 100 Calm 30.12 1020 10 16 0.00 0.00
9:53 am 09:53 Partly Cloudy 70 21.1 69 20.6 97 97 Calm 30.12 1020 10 16 0.00 0.00
10:08 am 10:08 Mostly Cloudy 70 21.1 69 20.6 97 97 Calm 30.12 1020 10 16 0.00 0.00
10:53 am 10:53 Mostly Cloudy 72 22.2 70 21.1 94 94 Calm 30.11 1020 10 16 0.00 0.00
11:35 am 11:35 Mostly Cloudy 75 23.9 69 20.6 82 82 undefined N/A 30.12 1020 10 16 0.00 0.00
11:53 am 11:53 Mostly Sunny 76 24.4 69 20.6 79 79 Calm 30.11 1020 10 16 0.00 0.00
12:40 pm 12:40 Mostly Cloudy 77 25 68 20 74 74 Calm 30.12 1020 10 16 0.00 0.00
12:53 pm 12:53 Mostly Cloudy 78 25.6 67 19.4 69 69 VRB 5 7 30.10 1019 10 16 0.00 0.00
1:12 pm 13:12 Mostly Cloudy 78 25.6 67 19.4 69 69 VRB 3 6 30.06 1018 10 16 0.00 0.00
1:53 pm 13:53 Partly Cloudy 79 26.1 66 18.9 65 65 VRB 5 7 30.08 1019 10 16 0.00 0.00
2:53 pm 14:53 Partly Cloudy 79 26.1 65 18.3 62 62 Calm 30.07 1018 10 16 0.00 0.00
3:53 pm 15:53 Mostly Sunny 82 27.8 66 18.9 58 58 VRB 3 6 30.05 1018 10 16 0.00 0.00
4:53 pm 16:53 Sunny 82 27.8 65 18.3 56 56 Calm 30.03 1017 10 16 0.00 0.00
5:53 pm 17:53 Sunny 82 27.8 64 17.8 55 55 Calm 30.02 1017 10 16 0.00 0.00
6:53 pm 18:53 Partly Cloudy 80 26.7 66 18.9 62 62 Calm 30.02 1017 10 16 0.00 0.00
7:53 pm 19:53 Mostly Sunny 77 25 71 21.7 82 82 Calm 30.03 1017 10 16 0.00 0.00
8:53 pm 20:53 Clear 70 21.1 70 21.1 100 100 Calm 30.04 1017 10 16 0.00 0.00
9:53 pm 21:53 Clear 69 20.6 69 20.6 100 100 Calm 30.05 1018 10 16 0.00 0.00
10:53 pm 22:53 Partly Cloudy 69 20.6 69 20.6 100 100 Calm 30.07 1018 10 16 0.00 0.00
11:53 pm 23:53 Clear 67 19.4 67 19.4 100 100 Calm 30.07 1018 10 16 0.00 0.00

Powered by AerisWeather